Wind_Speed
39 38 37 36 35 35 35 35 36 34 33 30 28 28 28 28 27 28 27 27 26 26 26 26 26 25 25 25 25 25 25 24 23 23 24 24 24 24 24 24 24 25 26 27
40 39 39 38 36 35 34 34 34 34 32 30 29 29 28 28 28 27 26 25 25 25 25 25 25 24 24 24 24 24 24 23 22 23 23 23 24 24 24 24 23 24 26 26
40 40 40 40 37 35 34 32 32 32 30 30 29 29 28 28 28 27 26 25 25 26 25 24 23 23 23 23 24 24 24 23 22 23 24 24 24 24 24 24 24 25 26 25
39 39 40 38 36 35 35 34 32 32 31 31 29 28 28 28 28 27 26 26 26 25 25 24 23 23 23 23 23 23 22 22 23 23 24 25 25 25 24 24 25 26 25 25
37 38 38 38 36 34 34 34 33 32 31 31 30 29 28 27 27 26 26 26 26 25 25 24 23 23 23 23 23 23 23 23 23 24 25 25 25 25 24 25 25 25 25 26
35 36 37 36 36 35 34 34 33 32 31 30 30 29 27 28 28 28 27 27 26 25 24 24 24 24 24 23 22 23 23 24 24 25 26 25 25 25 25 26 26 26 27 27
35 34 34 34 34 34 34 33 32 31 31 31 30 29 29 29 29 28 27 27 27 26 25 25 26 25 24 23 23 24 25 25 25 26 26 26 25 25 26 27 27 28 28 27
35 34 33 32 33 34 34 32 31 31 31 30 30 30 29 29 29 28 27 27 27 27 27 27 25 25 24 24 25 25 25 26 26 26 26 26 27 27 28 28 28 27 28 27
33 33 32 32 32 34 34 33 32 31 31 30 30 30 29 29 29 29 28 28 27 28 27 26 25 25 25 25 26 26 26 26 26 26 26 27 28 28 28 28 29 29 28 27
34 33 32 33 32 33 33 33 33 32 31 30 30 29 29 29 29 28 28 28 27 27 27 26 26 25 26 26 26 27 28 28 27 27 27 28 29 29 30 30 30 29 28 28
33 32 33 33 33 32 32 32 32 31 30 30 30 29 29 28 28 28 28 28 28 28 27 27 26 27 27 26 27 27 28 27 27 28 28 29 30 31 31 31 30 29 28 28
32 32 33 33 33 33 32 31 32 31 30 30 30 29 29 28 28 28 28 29 28 28 28 27 27 27 27 27 27 28 28 28 28 29 30 31 31 31 31 31 30 29 29 28
32 33 33 33 33 32 31 31 31 30 30 30 30 30 29 29 28 28 28 28 28 27 27 27 27 27 27 27 27 28 28 29 29 29 30 31 31 30 30 29 30 30 29 29
31 33 33 33 32 32 30 29 29 29 29 29 29 29 29 29 28 28 28 27 27 27 26 27 27 27 27 28 29 29 29 29 29 30 30 30 30 30 29 29 29 29 30 30
30 31 32 32 32 31 30 29 29 28 27 28 28 28 28 29 29 29 28 28 28 27 27 27 28 28 29 29 29 29 30 30 31 31 31 30 30 30 30 30 30 30 30 30
29 30 30 30 31 30 30 30 29 29 28 28 28 28 29 29 29 30 29 29 29 28 29 29 29 29 30 30 30 30 30 31 31 31 31 31 30 30 31 31 31 31 31 30
28 28 29 29 30 30 31 31 30 29 29 28 28 28 29 29 29 29 29 29 30 29 30 30 30 30 30 30 30 30 30 31 31 31 31 32 31 32 32 32 32 32 32 31
26 27 28 28 28 29 30 31 31 30 30 29 29 29 29 29 29 28 28 29 29 29 30 30 30 30 30 31 31 30 30 31 31 31 31 32 32 32 33 32 32 31 31 30
25 26 27 27 28 29 29 30 30 30 30 30 29 29 28 29 29 28 28 28 28 29 29 30 30 30 30 31 31 31 31 31 32 32 32 32 32 32 32 31 31 30 29 28
25 25 25 27 28 29 29 30 30 30 30 30 29 29 28 28 28 28 28 28 28 29 29 30 31 31 31 32 32 32 32 33 33 33 33 33 32 31 30 29 29 28 27 26
25 25 25 26 28 30 30 30 30 30 30 30 29 28 28 28 29 29 29 29 29 30 30 31 31 31 32 32 32 33 33 33 33 34 33 32 31 30 29 28 27 26 25 24
24 25 25 26 26 28 29 30 30 30 29 29 29 29 28 29 29 29 29 30 30 30 31 31 31 32 32 32 32 32 33 33 33 33 32 31 30 28 27 26 25 24 23 22
24 25 25 26 26 27 28 29 29 29 29 29 29 29 29 29 29 29 30 30 30 31 31 31 31 31 31 31 31 32 32 32 32 31 30 29 27 26 25 24 24 23 22 21
22 23 24 25 25 25 26 28 29 29 30 30 30 29 29 29 29 29 30 30 30 30 31 31 30 30 30 30 30 31 31 30 30 29 28 27 25 25 24 24 23 21 20 20
21 22 23 24 24 25 25 26 28 29 29 29 29 29 29 29 29 29 29 30 30 30 30 29 29 29 29 29 29 29 29 29 29 28 27 26 25 25 24 23 21 20 19 18
20 21 22 23 24 25 25 26 27 28 29 29 29 29 29 29 28 28 29 29 29 29 29 29 29 28 28 28 29 29 29 28 28 27 26 26 25 24 23 22 20 19 18 16
20 21 22 23 24 24 24 25 26 27 28 28 29 29 29 28 28 28 28 28 28 28 28 28 28 28 27 27 27 27 27 26 26 25 24 24 23 22 21 19 18 17 16 15
Wind_Direction
237 239 239 239 240 242 245 248 252 254 257 259 262 264 268 272 275 279 280 283 284 285 287 288 289 288 289 292 294 294 293 292 289 292 295 296 297 297 297 297 297 295 294 293
235 238 240 240 239 241 243 247 250 253 256 259 262 264 268 271 274 276 279 279 281 283 287 289 290 288 288 290 292 292 292 291 291 293 294 296 298 298 299 301 302 302 297 295
235 235 239 240 240 242 244 247 251 253 256 258 260 262 266 268 271 273 274 276 277 281 284 286 287 288 288 288 290 291 292 292 292 293 293 295 297 298 299 300 302 303 301 299
235 235 238 240 242 244 246 246 249 253 255 257 259 261 264 268 270 271 271 273 275 278 283 285 284 287 290 290 291 294 294 293 293 292 293 295 297 298 299 299 302 304 302 301
237 239 240 240 241 243 246 248 249 252 255 257 258 260 263 266 269 270 270 273 274 277 281 283 283 285 288 291 292 293 294 293 292 292 293 295 297 299 300 301 303 303 302 300
238 241 242 242 242 244 247 249 249 252 254 256 258 260 262 264 267 269 271 272 273 276 281 281 281 283 286 288 290 292 293 293 294 293 293 294 296 299 301 303 303 302 301 301
237 241 244 244 245 245 246 248 248 251 254 256 257 258 259 263 266 268 269 270 272 274 277 279 279 281 283 285 287 289 291 294 294 294 295 295 295 297 299 301 302 301 301 301
237 239 240 243 244 245 247 248 249 250 254 257 258 259 261 263 266 267 269 270 271 273 274 275 277 278 279 282 285 288 291 293 294 293 294 295 295 296 298 298 299 300 301 299
239 240 240 241 244 245 246 248 250 251 253 255 258 260 262 265 266 266 268 269 270 272 273 273 273 274 276 280 284 288 290 292 292 292 292 293 294 295 296 296 296 298 299 298
239 239 240 241 243 244 245 247 249 252 254 255 257 259 261 263 265 267 268 268 269 270 271 271 272 275 276 281 284 287 289 291 291 291 292 293 295 295 296 297 296 295 296 295
239 239 240 241 241 242 243 245 248 251 253 255 257 259 260 262 264 265 266 267 267 268 269 269 271 275 278 281 284 286 289 290 290 291 292 294 294 296 297 297 296 296 296 296
240 239 241 241 242 243 244 245 247 249 251 254 257 259 261 263 263 263 265 266 267 267 266 267 269 273 278 280 284 286 289 290 292 292 293 294 296 296 297 296 296 297 298 297
242 242 244 244 243 243 244 245 246 248 250 252 255 258 260 262 263 261 262 264 265 265 265 267 270 274 277 280 283 285 288 290 293 294 294 294 295 296 296 297 299 299 298 298
243 243 242 243 242 242 242 243 244 246 249 252 254 256 258 260 261 260 259 260 262 264 265 266 269 272 275 278 281 284 287 289 292 294 295 295 295 296 297 297 298 298 297 298
242 242 241 240 241 242 242 242 243 244 247 250 251 253 255 257 258 258 258 259 261 262 264 266 269 273 275 277 280 282 285 288 292 294 295 296 296 297 297 297 298 298 298 297
241 242 242 240 240 241 242 243 243 245 246 249 252 253 255 257 258 258 258 259 260 261 264 267 270 273 275 278 280 282 285 288 291 293 294 294 295 296 296 297 297 297 297 296
242 243 243 242 241 242 243 244 245 247 248 251 254 255 256 257 258 258 258 259 260 262 265 267 270 272 275 278 281 283 285 288 291 293 293 293 293 294 295 296 296 296 296 295
244 246 245 243 242 242 244 245 248 250 252 255 257 258 257 258 258 259 259 260 261 263 265 267 270 272 276 279 283 285 287 290 293 294 295 295 294 295 296 296 296 295 294 293
246 247 246 246 245 244 245 246 248 251 253 256 258 260 261 260 260 261 262 263 264 265 266 268 270 273 276 279 282 284 287 290 293 294 295 296 297 297 297 296 295 294 293 292
248 248 249 250 248 247 247 246 248 250 252 254 257 260 261 262 261 262 263 263 264 265 267 270 273 275 277 281 283 284 286 289 292 293 294 295 296 297 296 294 294 293 291 290
250 250 251 252 251 249 248 247 248 250 252 254 256 258 260 261 262 263 264 264 265 267 269 271 274 276 278 281 283 284 286 289 291 293 294 294 295 295 295 294 294 293 291 290
250 251 252 252 252 251 249 248 248 250 252 255 256 257 259 261 262 264 265 265 266 268 270 272 274 276 277 280 283 284 286 288 290 291 292 292 293 293 293 293 293 292 291 289
251 251 251 251 252 251 250 250 250 251 253 255 257 259 261 262 263 264 265 266 268 270 270 271 273 275 277 280 283 285 287 289 290 291 290 291 291 291 292 292 292 291 289 287
254 253 252 252 254 254 253 253 252 253 254 255 257 259 260 261 263 264 265 266 268 270 271 272 273 275 277 280 283 286 288 289 290 290 291 290 289 289 290 291 291 290 288 286
256 256 255 255 256 256 256 255 253 253 253 255 257 259 260 261 262 263 265 267 270 271 271 272 273 275 278 281 284 286 287 288 289 289 288 287 287 288 289 289 289 288 287 285
260 259 257 257 258 257 257 256 255 255 255 256 258 259 260 260 261 263 266 268 269 270 270 271 273 275 278 281 284 285 286 287 287 287 286 286 286 286 286 285 285 284 283 281
262 262 259 258 258 259 259 258 257 257 256 256 257 259 260 260 262 263 265 267 267 269 270 271 273 274 277 280 283 285 285 286 287 285 285 285 285 284 283 282 280 279 278 275
Height
5580 5585 5589 5593 5597 5600 5603 5606 5609 5613 5615 5618 5618 5618 5618 5618 5617 5616 5614 5613 5611 5608 5606 5603 5601 5599 5597 5595 5592 5590 5587 5586 5585 5583 5582 5580 5578 5576 5574 5572 5569 5567 5565 5562
5571 5576 5579 5583 5588 5592 5595 5598 5601 5604 5607 5610 5610 5610 5610 5610 5609 5608 5608 5606 5604 5602 5600 5598 5595 5593 5591 5589 5587 5584 5582 5581 5579 5578 5578 5576 5574 5572 5570 5567 5565 5562 5560 5557
5562 5567 5569 5575 5582 5585 5588 5591 5594 5596 5600 5601 5601 5602 5602 5602 5601 5601 5601 5600 5598 5596 5595 5593 5590 5588 5586 5584 5582 5579 5577 5576 5575 5575 5573 5572 5570 5568 5566 5563 5561 5558 5555 5552
5553 5558 5562 5571 5574 5576 5579 5582 5585 5588 5590 5591 5593 5594 5594 5594 5594 5594 5594 5593 5592 5591 5589 5587 5585 5583 5581 5579 5577 5575 5574 5573 5571 5570 5569 5567 5565 5563 5561 5559 5556 5554 5551 5548
5545 5549 5554 5561 5565 5568 5571 5574 5577 5579 5581 5582 5584 5585 5587 5588 5587 5587 5587 5587 5586 5585 5584 5582 5580 5578 5577 5575 5573 5571 5570 5569 5567 5566 5564 5562 5561 5558 5556 5554 5552 5549 5546 5543
5537 5541 5546 5553 5556 5559 5563 5566 5568 5570 5572 5574 5575 5578 5581 5580 5580 5580 5581 5581 5580 5580 5578 5577 5575 5573 5572 5571 5569 5568 5566 5564 5562 5561 5559 5557 5555 5553 5551 5549 5546 5544 5541 5538
5529 5533 5538 5543 5547 5551 5555 5558 5559 5561 5564 5566 5568 5570 5572 5572 5573 5573 5574 5574 5573 5573 5573 5572 5570 5568 5567 5566 5564 5563 5561 5559 5557 5555 5553 5551 5550 5548 5545 5543 5541 5538 5536 5533
5522 5526 5533 5535 5538 5542 5545 5548 5550 5553 5555 5558 5560 5561 5563 5565 5565 5566 5566 5566 5566 5566 5566 5565 5564 5563 5562 5560 5559 5557 5556 5554 5551 5549 5547 5545 5544 5542 5539 5537 5535 5532 5530 5527
5516 5522 5524 5526 5530 5532 5536 5539 5542 5544 5547 5549 5551 5553 5555 5556 5557 5558 5559 5559 5559 5559 5558 5558 5557 5556 5555 5555 5553 5552 5550 5548 5546 5544 5542 5540 5537 5535 5533 5531 5528 5526 5523 5521
5507 5512 5515 5518 5521 5524 5527 5530 5533 5536 5539 5541 5543 5545 5547 5548 5549 5550 5551 5552 5552 5552 5551 5551 5550 5550 5549 5548 5547 5546 5544 5542 5540 5538 5536 5534 5532 5529 5527 5524 5521 5519 5516 5514
5499 5504 5507 5510 5513 5516 5519 5522 5525 5528 5530 5533 5535 5537 5539 5540 5541 5542 5543 5543 5544 5544 5544 5544 5543 5543 5542 5541 5541 5539 5538 5536 5534 5532 5530 5528 5526 5523 5520 5517 5514 5512 5509 5507
5492 5496 5498 5502 5505 5508 5511 5513 5516 5519 5522 5524 5527 5529 5531 5532 5533 5534 5535 5535 5536 5536 5536 5536 5536 5536 5535 5534 5534 5533 5531 5530 5527 5526 5524 5521 5519 5516 5513 5510 5507 5504 5502 5499
5484 5487 5490 5493 5496 5499 5502 5505 5508 5511 5514 5516 5518 5520 5522 5523 5525 5526 5526 5527 5527 5528 5528 5529 5529 5529 5528 5527 5527 5526 5524 5523 5521 5519 5516 5514 5512 5509 5507 5504 5501 5498 5495 5492
5475 5478 5482 5485 5488 5491 5494 5497 5500 5503 5505 5507 5510 5512 5513 5515 5516 5517 5518 5519 5520 5520 5521 5521 5521 5521 5521 5520 5520 5518 5517 5515 5514 5511 5509 5507 5504 5502 5500 5497 5495 5492 5489 5485
5468 5471 5474 5477 5480 5483 5486 5489 5492 5495 5497 5499 5501 5503 5505 5506 5507 5508 5510 5511 5512 5512 5513 5513 5514 5514 5513 5513 5512 5511 5510 5508 5506 5504 5501 5499 5497 5494 5492 5490 5487 5485 5482 5479
5461 5464 5467 5470 5473 5476 5479 5482 5485 5487 5489 5491 5493 5494 5496 5497 5498 5500 5501 5502 5503 5504 5505 5506 5506 5506 5505 5505 5504 5503 5502 5500 5498 5496 5494 5491 5489 5487 5484 5482 5479 5477 5475 5472
5454 5456 5459 5463 5465 5468 5471 5474 5477 5479 5481 5483 5485 5486 5488 5489 5490 5491 5492 5493 5495 5496 5497 5498 5498 5498 5497 5497 5496 5495 5493 5492 5490 5488 5485 5483 5481 5479 5476 5474 5471 5469 5467 5464
5446 5449 5451 5454 5457 5460 5463 5466 5468 5471 5473 5475 5476 5478 5479 5481 5482 5483 5484 5485 5486 5488 5488 5489 5489 5489 5489 5488 5487 5486 5485 5483 5481 5479 5477 5474 5472 5470 5467 5465 5462 5460 5458 5456
5440 5442 5444 5447 5449 5452 5455 5458 5460 5462 5464 5466 5468 5469 5471 5472 5474 5475 5476 5477 5478 5479 5480 5480 5480 5480 5480 5479 5478 5477 5476 5474 5473 5470 5468 5466 5463 5461 5458 5456 5453 5451 5449 5447
5433 5435 5437 5439 5441 5444 5447 5449 5452 5454 5456 5457 5459 5461 5463 5464 5465 5466 5467 5468 5469 5470 5470 5471 5471 5471 5470 5470 5469 5468 5467 5465 5464 5462 5459 5457 5455 5452 5449 5447 5445 5442 5440 5439
5426 5428 5430 5431 5433 5436 5438 5441 5443 5446 5447 5449 5451 5453 5454 5455 5457 5458 5459 5460 5460 5460 5461 5461 5461 5461 5461 5460 5459 5458 5457 5456 5454 5452 5450 5448 5445 5443 5441 5438 5436 5434 5432 5431
5419 5421 5422 5424 5426 5428 5430 5432 5434 5437 5439 5441 5442 5444 5445 5447 5448 5449 5449 5450 5451 5451 5451 5451 5451 5451 5451 5450 5450 5449 5447 5446 5444 5443 5441 5438 5436 5434 5432 5430 5428 5426 5425 5423
5412 5413 5415 5417 5418 5420 5421 5423 5426 5428 5430 5432 5434 5435 5437 5438 5438 5439 5440 5441 5441 5441 5441 5442 5441 5441 5441 5440 5439 5439 5437 5436 5435 5433 5431 5429 5427 5426 5424 5422 5420 5419 5417 5416
5405 5406 5407 5409 5410 5412 5413 5415 5417 5419 5421 5423 5425 5426 5428 5429 5430 5430 5431 5431 5432 5432 5432 5432 5432 5431 5431 5430 5430 5429 5428 5426 5425 5424 5422 5421 5419 5418 5416 5415 5413 5411 5410 5409
5398 5399 5400 5401 5403 5404 5406 5407 5409 5411 5413 5414 5416 5417 5419 5420 5421 5421 5422 5422 5423 5423 5423 5423 5422 5422 5422 5421 5421 5420 5418 5417 5416 5415 5414 5412 5411 5410 5408 5407 5406 5405 5404 5403
5391 5392 5393 5394 5396 5397 5398 5400 5401 5403 5404 5406 5407 5409 5410 5411 5412 5412 5413 5413 5413 5413 5413 5413 5413 5413 5412 5412 5411 5410 5409 5408 5407 5406 5405 5404 5403 5401 5400 5399 5399 5398 5397 5396
5385 5386 5387 5388 5389 5390 5390 5391 5393 5394 5395 5397 5398 5400 5401 5402 5403 5403 5404 5404 5404 5404 5404 5404 5404 5404 5403 5403 5402 5401 5400 5399 5398 5397 5396 5395 5394 5393 5393 5392 5392 5391 5391 5390